GW3498 Weather Reports


Display with metric or nautical units.
time (UTC)temp
F
wind
direction
speed
MPH
gust
MPH
rain 1hr
in
rain 24hr
in
rain mn
in
humidity
%
barometer
mb
20260509224028 63 154 1.0 3.0 0.00 0.00 0.00 61 1014.6
20260509223022 63 172 1.0 3.0 0.00 0.00 0.00 60 1014.8
20260509222019 63 182 1.0 3.0 0.00 0.00 0.00 60 1014.8
20260509221034 62 163 1.0 2.0 0.00 0.00 0.00 62 1014.6
20260509220047 61 175 1.0 2.0 0.00 0.00 0.00 67 1014.7
20260509215041 61 184 0.0 2.0 0.00 0.00 0.00 69 1014.5
20260509214037 60 170 1.0 2.0 0.00 0.00 0.00 72 1014.3
20260509213030 61 169 0.0 2.0 0.00 0.00 0.00 73 1014.3
20260509212025 62 181 0.0 1.0 0.00 0.00 0.00 71 1014.4
20260509211018 63 178 1.0 2.0 0.00 0.00 0.00 68 1014.0
20260509210033 63 181 1.0 2.0 0.00 0.00 0.00 66 1013.9
20260509205027 63 159 1.0 3.0 0.00 0.00 0.00 66 1013.8
20260509204043 61 193 1.0 2.0 0.00 0.00 0.00 72 1013.4
20260509203018 60 182 0.0 2.0 0.00 0.00 0.00 79 1014.0
20260509202031 61 0.0 0.0 0.00 0.00 0.00 80 1014.6
20260509201025 61 24 0.0 1.0 0.00 0.00 0.00 79 1014.9
20260509200020 61 21 1.0 2.0 0.00 0.00 0.00 78 1015.4
20260509195035 61 35 0.0 1.0 0.00 0.00 0.00 76 1015.5
20260509194036 61 21 1.0 1.0 0.00 0.00 0.00 74 1015.2
20260509193023 61 0.0 0.0 0.00 0.00 0.00 72 1015.2
20260509192058 61 344 0.0 1.0 0.00 0.00 0.00 71 1015.0
20260509191032 61 347 0.0 1.0 0.00 0.00 0.00 71 1014.6
20260509190047 61 11 0.0 1.0 0.00 0.00 0.00 69 1014.5
20260509185021 62 0.0 0.0 0.00 0.00 0.00 69 1014.4
20260509184036 62 0 0.0 1.0 0.00 0.00 0.00 69 1014.3
20260509183031 62 3 0.0 1.0 0.00 0.00 0.00 71 1014.3
20260509182047 62 0.0 0.0 0.00 0.00 0.00 70 1014.1
20260509181019 63 0.0 0.0 0.00 0.00 0.00 68 1014.0
20260509180035 64 0.0 0.0 0.00 0.00 0.00 66 1014.0
20260509175028 64 0.0 0.0 0.00 0.00 0.00 63 1014.2
20260509174022 64 0.0 0.0 0.00 0.00 0.00 64 1014.0
20260509173016 65 62 0.0 1.0 0.00 0.00 0.00 61 1014.0
20260509172032 66 208 1.0 2.0 0.00 0.00 0.00 58 1014.1
20260509171025 66 26 0.0 1.0 0.00 0.00 0.00 59 1014.4
20260509170020 67 21 0.0 1.0 0.00 0.00 0.00 59 1014.7
20260509165034 68 192 1.0 3.0 0.00 0.00 0.00 56 1014.7
20260509164029 69 15 1.0 3.0 0.00 0.00 0.00 54 1014.5
20260509163023 70 200 2.0 4.0 0.00 0.00 0.00 53 1014.6
20260509162017 71 224 1.0 3.0 0.00 0.00 0.00 54 1014.5
20260509161034 70 185 1.0 4.0 0.00 0.00 0.00 55 1014.4
20260509160027 72 199 1.0 4.0 0.00 0.00 0.00 55 1014.4
20260509155021 72 206 1.0 4.0 0.00 0.00 0.00 53 1014.5
20260509154017 72 199 1.0 4.0 0.00 0.00 0.00 54 1014.6
20260509153031 73 201 1.0 2.0 0.00 0.00 0.00 52 1014.6
20260509152025 74 182 1.0 1.0 0.00 0.00 0.00 51 1014.5
20260509151020 74 223 1.0 2.0 0.00 0.00 0.00 52 1014.5
20260509150034 75 207 1.0 3.0 0.00 0.00 0.00 52 1014.6
20260509145049 75 261 1.0 3.0 0.00 0.00 0.00 51 1014.8
20260509144023 74 191 1.0 3.0 0.00 0.00 0.00 54 1015.0
20260509143019 74 205 1.0 2.0 0.00 0.00 0.00 52 1015.0
20260509142035 73 198 1.0 3.0 0.00 0.00 0.00 52 1015.2
20260509141030 73 224 2.0 4.0 0.00 0.00 0.00 52 1015.4
20260509140024 73 204 2.0 7.0 0.00 0.00 0.00 52 1015.6
20260509135018 74 217 1.0 3.0 0.00 0.00 0.00 55 1015.7
20260509134032 74 231 1.0 4.0 0.00 0.00 0.00 54 1015.8
20260509133027 73 187 2.0 7.0 0.00 0.00 0.00 53 1015.8
20260509132022 73 102 1.0 4.0 0.00 0.00 0.00 55 1016.0
20260509131018 74 218 1.0 2.0 0.00 0.00 0.00 58 1016.0
20260509130034 73 206 2.0 4.0 0.00 0.00 0.00 56 1016.0
20260509125026 73 174 2.0 7.0 0.00 0.00 0.00 56 1016.2
20260509124021 71 209 2.0 7.0 0.00 0.00 0.00 56 1016.1
20260509123036 73 243 2.0 6.0 0.00 0.01 0.00 56 1016.1
20260509122051 72 166 2.0 6.0 0.00 0.02 0.00 53 1016.1
20260509121026 72 173 2.0 4.0 0.00 0.06 0.00 53 1016.1
20260509120021 73 175 1.0 2.0 0.00 0.18 0.00 52 1016.1
20260509115036 72 221 3.0 6.0 0.00 0.21 0.00 52 1016.2
20260509114031 73 233 1.0 3.0 0.00 0.24 0.00 54 1016.1
20260509113025 73 182 1.0 4.0 0.00 0.28 0.00 54 1016.1
20260509112040 73 190 2.0 4.0 0.00 0.30 0.00 54 1016.2
20260509111037 72 154 1.0 3.0 0.00 0.30 0.00 55 1016.2
20260509110030 71 213 1.0 2.0 0.00 0.31 0.00 59 1016.4
20260509105103 71 179 2.0 6.0 0.00 0.36 0.00 59 1016.2
20260509104040 71 212 1.0 3.0 0.00 0.36 0.00 60 1016.2
20260509103033 71 211 1.0 2.0 0.00 0.36 0.00 58 1016.2
20260509102027 71 155 1.0 4.0 0.00 0.36 0.00 58 1016.1
20260509101021 71 187 1.0 3.0 0.00 0.36 0.00 58 1016.2
20260509100036 71 169 1.0 3.0 0.00 0.36 0.00 56 1016.1
20260509095030 71 193 1.0 3.0 0.00 0.36 0.00 57 1016.1
20260509094025 71 179 1.0 2.0 0.00 0.36 0.00 59 1016.1
20260509093019 70 201 1.0 2.0 0.00 0.36 0.00 60 1016.1
20260509092054 69 200 1.0 2.0 0.00 0.36 0.00 57 1016.1
20260509091028 69 195 1.0 3.0 0.00 0.36 0.00 61 1016.1
20260509090043 69 203 1.0 2.0 0.00 0.36 0.00 63 1016.0
20260509085037 69 182 1.0 2.0 0.00 0.36 0.00 66 1016.1
20260509084031 68 195 1.0 2.0 0.00 0.36 0.00 70 1016.1
20260509083025 67 178 1.0 3.0 0.00 0.36 0.00 71 1016.1
20260509082040 66 192 1.0 3.0 0.00 0.36 0.00 72 1016.1
20260509081035 66 194 1.0 2.0 0.00 0.36 0.00 72 1016.0
20260509080029 66 174 0.0 2.0 0.00 0.36 0.00 72 1016.1
20260509075044 64 180 0.0 1.0 0.00 0.36 0.00 76 1016.3
20260509074019 63 203 1.0 3.0 0.00 0.36 0.00 79 1016.2
20260509073033 62 202 1.0 2.0 0.00 0.36 0.00 81 1016.3
20260509072028 61 154 1.0 2.0 0.00 0.36 0.00 82 1016.3
20260509071023 61 205 0.0 1.0 0.00 0.36 0.00 83 1016.3
20260509070037 60 166 0.0 1.0 0.00 0.36 0.00 83 1016.5
20260509065055 60 198 0.0 1.0 0.00 0.36 0.00 85 1016.4
20260509064029 59 214 0.0 1.0 0.00 0.36 0.00 85 1016.4
20260509063023 59 207 0.0 1.0 0.00 0.36 0.00 85 1016.5
20260509062018 58 151 0.0 1.0 0.00 0.36 0.00 86 1016.4
20260509061033 57 191 0.0 1.0 0.00 0.36 0.00 89 1016.5
20260509060027 57 0.0 0.0 0.00 0.36 0.00 91 1016.6
20260509055022 56 0.0 0.0 0.00 0.36 0.00 92 1016.7
20260509054016 55 0.0 0.0 0.00 0.36 0.00 93 1016.6
20260509053031 55 0.0 0.0 0.00 0.36 0.00 94 1016.6
20260509052045 55 27 0.0 1.0 0.00 0.36 0.00 93 1016.7
20260509051020 55 351 0.0 1.0 0.00 0.36 0.00 92 1016.6
20260509050035 55 0.0 0.0 0.00 0.36 0.00 91 1016.3
20260509045028 55 0.0 0.0 0.00 0.36 0.00 91 1016.3
20260509044028 55 46 0.0 1.0 0.00 0.36 0.00 90 1016.2
20260509043017 55 40 0.0 1.0 0.00 0.36 0.00 91 1016.1
20260509042032 55 0.0 0.0 0.00 0.36 0.00 91 1016.1
20260509041027 54 0.0 0.0 0.00 0.36 0.00 92 1016.0
20260509040021 54 29 0.0 1.0 0.00 0.36 0.00 93 1015.9
20260509035036 54 0.0 0.0 0.00 0.36 0.00 92 1015.8
20260509034031 54 0.0 0.0 0.00 0.36 0.00 91 1015.8
20260509033026 55 22 0.0 1.0 0.00 0.36 0.00 90 1015.7
20260509032021 54 32 0.0 1.0 0.00 0.36 0.00 92 1015.5
20260509031035 54 20 1.0 1.0 0.00 0.36 0.00 93 1015.5
20260509030030 54 0.0 0.0 0.00 0.36 0.00 93 1015.6
20260509025024 54 0.0 0.0 0.00 0.36 0.00 92 1015.5
20260509024100 55 26 0.0 1.0 0.00 0.36 0.00 92 1015.5
20260509023034 55 13 0.0 1.0 0.00 0.36 0.00 91 1015.6
20260509022028 55 0.0 0.0 0.00 0.36 0.00 90 1015.6
20260509021024 56 0.0 0.0 0.00 0.36 0.00 88 1015.5
20260509020023 57 56 0.0 1.0 0.00 0.36 0.00 87 1015.6
20260509015054 57 17 0.0 1.0 0.00 0.36 0.00 88 1015.5
20260509014027 58 25 0.0 1.0 0.00 0.36 0.00 86 1015.6
20260509013021 57 28 0.0 1.0 0.00 0.36 0.00 88 1015.6
20260509012019 57 22 0.0 1.0 0.00 0.36 0.00 90 1015.5
20260509011031 57 0.0 0.0 0.00 0.36 0.00 90 1015.5
20260509010026 57 0.0 0.0 0.00 0.36 0.00 89 1015.3
20260509005021 56 26 1.0 1.0 0.00 0.36 0.00 89 1015.3
20260509004035 56 16 0.0 1.0 0.00 0.36 0.00 91 1015.1
20260509003050 55 25 0.0 1.0 0.00 0.36 0.00 91 1015.2
20260509002024 56 0.0 0.0 0.00 0.36 0.00 90 1015.3
20260509000033 56 0.0 0.0 0.00 0.36 0.00 90 1015.2
20260508235027 56 23 0.0 1.0 0.00 0.36 0.00 90 1015.0
20260508234022 56 9 1.0 1.0 0.00 0.36 0.00 92 1015.2
20260508233037 55 11 1.0 1.0 0.00 0.36 0.00 94 1015.3
20260508232031 55 358 1.0 2.0 0.00 0.36 0.00 95 1015.4
20260508231027 55 10 0.0 1.0 0.00 0.36 0.00 95 1015.3
20260508230041 55 11 1.0 2.0 0.00 0.36 0.00 95 1015.2
20260508225035 55 0.0 0.0 0.00 0.36 0.00 95 1015.3